Time,TemperatureF,DewpointF,PressureIn,WindDirection,WindDirectionDegrees,WindSpeedMPH,WindSpeedGustMPH,Humidity,HourlyPrecipIn,Conditions,Clouds,dailyrainin,SolarRadiationWatts/m^2,SoftwareType,DateUTC
2013-01-16 00:00:00,37.6,28.4,30.22,North,11,3.0,8.0,69,0.00,,,0.00,0.0,meteohub,2013-01-16 05:00:00,
2013-01-16 00:01:00,37.6,28.4,30.22,North,11,3.0,8.0,69,0.00,,,0.00,0.0,meteohub,2013-01-16 05:01:00,
2013-01-16 00:02:00,37.6,28.4,30.22,NNE,13,4.0,8.0,69,0.00,,,0.00,0.0,meteohub,2013-01-16 05:02:00,
2013-01-16 00:03:00,37.6,28.0,30.21,NE,35,3.0,8.0,68,0.00,,,0.00,0.0,meteohub,2013-01-16 05:03:00,
2013-01-16 00:08:00,37.6,28.4,30.22,NE,46,4.0,6.0,69,0.00,,,0.00,0.0,meteohub,2013-01-16 05:08:00,
2013-01-16 00:13:00,37.6,29.1,30.22,NE,40,5.0,6.0,71,0.00,,,0.00,0.0,meteohub,2013-01-16 05:13:00,
2013-01-16 00:18:00,37.2,28.8,30.22,NNE,25,3.0,6.0,71,0.00,,,0.00,0.0,meteohub,2013-01-16 05:18:00,
2013-01-16 00:24:00,37.2,29.1,30.22,NNE,27,0.0,6.0,72,0.00,,,0.00,0.0,meteohub,2013-01-16 05:24:00,
2013-01-16 00:29:00,37.0,29.1,30.22,NE,43,2.0,6.0,73,0.00,,,0.00,0.0,meteohub,2013-01-16 05:29:00,
2013-01-16 00:34:00,37.0,29.1,30.22,NE,43,0.0,5.0,73,0.00,,,0.00,0.0,meteohub,2013-01-16 05:34:00,
2013-01-16 00:39:00,37.0,29.1,30.22,NNE,12,3.0,4.0,73,0.00,,,0.00,0.0,meteohub,2013-01-16 05:39:00,
2013-01-16 00:44:00,36.9,28.9,30.22,NNE,20,4.0,5.0,73,0.00,,,0.00,0.0,meteohub,2013-01-16 05:44:00,
2013-01-16 00:49:00,36.9,29.3,30.22,NNE,24,3.0,6.0,74,0.00,,,0.00,0.0,meteohub,2013-01-16 05:49:00,
2013-01-16 00:54:00,36.7,29.1,30.22,NNE,23,3.0,6.0,74,0.00,,,0.00,0.0,meteohub,2013-01-16 05:54:00,
2013-01-16 00:59:00,36.5,29.3,30.22,NNE,30,0.0,6.0,75,0.00,,,0.00,0.0,meteohub,2013-01-16 05:59:00,
2013-01-16 01:05:00,36.3,29.1,30.21,NE,39,1.0,6.0,75,0.00,,,0.00,0.0,meteohub,2013-01-16 06:05:00,
2013-01-16 01:10:00,36.1,29.3,30.21,NE,46,0.0,6.0,76,0.00,,,0.00,0.0,meteohub,2013-01-16 06:10:00,
2013-01-16 01:15:00,36.1,29.7,30.22,NE,51,0.0,4.0,77,0.00,,,0.00,0.0,meteohub,2013-01-16 06:15:00,
2013-01-16 01:20:00,36.1,29.7,30.22,NE,51,0.0,3.0,77,0.00,,,0.00,0.0,meteohub,2013-01-16 06:20:00,
2013-01-16 01:25:00,36.0,29.8,30.22,NE,51,0.0,3.0,78,0.00,,,0.00,0.0,meteohub,2013-01-16 06:25:00,
2013-01-16 01:30:00,35.8,29.7,30.21,NNE,24,3.0,3.0,78,0.00,,,0.00,0.0,meteohub,2013-01-16 06:30:00,
2013-01-16 01:35:00,35.8,29.7,30.21,NNE,27,1.0,6.0,78,0.00,,,0.00,0.0,meteohub,2013-01-16 06:35:00,
2013-01-16 01:40:00,35.4,29.8,30.20,NNE,28,1.0,6.0,80,0.00,,,0.00,0.0,meteohub,2013-01-16 06:40:00,
2013-01-16 01:46:00,35.2,30.0,30.19,NE,49,2.0,5.0,81,0.00,,,0.00,0.0,meteohub,2013-01-16 06:46:00,
2013-01-16 01:51:00,35.1,29.8,30.19,NE,49,2.0,5.0,81,0.00,,,0.00,0.0,meteohub,2013-01-16 06:51:00,
2013-01-16 01:56:00,35.1,30.2,30.19,NE,49,2.0,4.0,82,0.00,,,0.00,0.0,meteohub,2013-01-16 06:56:00,
2013-01-16 02:01:00,34.9,30.2,30.20,NNE,24,1.0,4.0,83,0.00,,,0.00,0.0,meteohub,2013-01-16 07:01:00,
2013-01-16 02:06:00,34.5,29.8,30.19,NNE,23,6.0,6.0,83,0.00,,,0.00,0.0,meteohub,2013-01-16 07:06:00,
2013-01-16 02:12:00,34.5,30.2,30.18,NE,38,4.0,7.0,84,0.00,,,0.00,0.0,meteohub,2013-01-16 07:12:00,
2013-01-16 02:17:00,34.3,30.4,30.18,NE,38,2.0,7.0,85,0.00,,,0.00,0.0,meteohub,2013-01-16 07:17:00,
2013-01-16 02:22:00,34.2,30.2,30.18,NNE,26,3.0,7.0,85,0.00,,,0.00,0.0,meteohub,2013-01-16 07:22:00,
2013-01-16 02:27:00,34.2,30.4,30.18,North,5,3.0,6.0,86,0.00,,,0.00,0.0,meteohub,2013-01-16 07:27:00,
2013-01-16 02:32:00,34.2,30.4,30.18,NNE,14,3.0,6.0,86,0.00,,,0.00,0.0,meteohub,2013-01-16 07:32:00,
2013-01-16 02:37:00,34.2,30.4,30.17,NNE,20,3.0,6.0,86,0.00,,,0.00,0.0,meteohub,2013-01-16 07:37:00,
2013-01-16 02:42:00,34.0,30.6,30.17,NNE,19,5.0,6.0,87,0.00,,,0.00,0.0,meteohub,2013-01-16 07:42:00,
2013-01-16 02:47:00,34.0,30.6,30.17,NNE,28,6.0,6.0,87,0.00,,,0.00,0.0,meteohub,2013-01-16 07:47:00,
2013-01-16 02:52:00,34.0,30.6,30.17,NNW,347,6.0,7.0,87,0.00,,,0.00,0.0,meteohub,2013-01-16 07:52:00,
2013-01-16 02:57:00,33.8,30.6,30.16,NNE,26,3.0,7.0,88,0.00,,,0.00,0.0,meteohub,2013-01-16 07:57:00,
2013-01-16 03:02:00,33.6,30.4,30.17,North,10,5.0,7.0,88,0.00,,,0.00,0.0,meteohub,2013-01-16 08:02:00,
2013-01-16 03:07:00,33.6,30.4,30.16,NNE,31,4.0,7.0,88,0.00,,,0.00,0.0,meteohub,2013-01-16 08:07:00,
2013-01-16 03:12:00,33.4,30.2,30.17,NNE,15,1.0,8.0,88,0.00,,,0.00,0.0,meteohub,2013-01-16 08:12:00,
2013-01-16 03:17:00,33.4,30.2,30.17,NNW,337,1.0,8.0,88,0.00,,,0.00,0.0,meteohub,2013-01-16 08:17:00,
2013-01-16 03:22:00,33.4,30.6,30.17,NNW,337,4.0,8.0,89,0.00,,,0.00,0.0,meteohub,2013-01-16 08:22:00,
2013-01-16 03:27:00,33.3,30.4,30.17,NNW,335,2.0,6.0,89,0.00,,,0.00,0.0,meteohub,2013-01-16 08:27:00,
2013-01-16 03:32:00,33.3,30.4,30.16,NNE,19,2.0,6.0,89,0.00,,,0.00,0.0,meteohub,2013-01-16 08:32:00,
2013-01-16 03:37:00,33.3,30.4,30.14,NE,47,4.0,6.0,89,0.00,,,0.00,0.0,meteohub,2013-01-16 08:37:00,
2013-01-16 03:43:00,33.3,30.4,30.15,NNE,30,4.0,6.0,89,0.00,,,0.00,0.0,meteohub,2013-01-16 08:43:00,
2013-01-16 03:48:00,33.3,30.6,30.15,NNE,17,5.0,6.0,90,0.00,,,0.00,0.0,meteohub,2013-01-16 08:48:00,
2013-01-16 03:53:00,33.3,30.6,30.14,NNE,15,4.0,6.0,90,0.00,,,0.00,0.0,meteohub,2013-01-16 08:53:00,
2013-01-16 03:58:00,33.3,30.6,30.13,NNE,20,3.0,7.0,90,0.00,,,0.00,0.0,meteohub,2013-01-16 08:58:00,
2013-01-16 04:03:00,33.1,30.4,30.13,NNE,12,5.0,7.0,90,0.00,,,0.00,0.0,meteohub,2013-01-16 09:03:00,
2013-01-16 04:08:00,33.1,30.4,30.13,North,0,6.0,7.0,90,0.00,,,0.00,0.0,meteohub,2013-01-16 09:08:00,
2013-01-16 04:13:00,33.1,30.4,30.13,NNE,12,5.0,6.0,90,0.00,,,0.00,0.0,meteohub,2013-01-16 09:13:00,
2013-01-16 04:18:00,33.1,30.4,30.12,North,5,3.0,7.0,90,0.00,,,0.00,0.0,meteohub,2013-01-16 09:18:00,
2013-01-16 04:24:00,32.9,30.4,30.12,NNE,24,4.0,7.0,90,0.00,,,0.00,0.0,meteohub,2013-01-16 09:24:00,
2013-01-16 04:29:00,32.9,30.6,30.12,NNE,19,6.0,6.0,91,0.00,,,0.00,0.0,meteohub,2013-01-16 09:29:00,
2013-01-16 04:34:00,32.7,30.4,30.11,NNW,348,5.0,6.0,91,0.00,,,0.00,0.0,meteohub,2013-01-16 09:34:00,
2013-01-16 04:39:00,32.7,30.4,30.11,NE,38,6.0,7.0,91,0.00,,,0.00,0.0,meteohub,2013-01-16 09:39:00,
2013-01-16 04:44:00,32.7,30.4,30.10,NNE,13,4.0,8.0,91,0.00,,,0.00,0.0,meteohub,2013-01-16 09:44:00,
2013-01-16 04:49:00,32.7,30.4,30.10,NNE,30,3.0,8.0,91,0.00,,,0.00,0.0,meteohub,2013-01-16 09:49:00,
2013-01-16 04:55:00,32.7,30.4,30.09,North,11,4.0,8.0,91,0.00,,,0.00,0.0,meteohub,2013-01-16 09:55:00,
2013-01-16 05:00:00,32.7,30.4,30.09,NNE,32,6.0,8.0,91,0.00,,,0.00,0.0,meteohub,2013-01-16 10:00:00,
2013-01-16 05:05:00,32.7,30.4,30.10,NNE,19,4.0,8.0,91,0.00,,,0.01,0.0,meteohub,2013-01-16 10:05:00,
2013-01-16 05:10:00,32.7,30.7,30.10,NNE,32,4.0,8.0,92,0.01,,,0.01,0.0,meteohub,2013-01-16 10:10:00,
2013-01-16 05:15:00,32.7,30.7,30.09,NE,48,5.0,8.0,92,0.01,,,0.01,0.0,meteohub,2013-01-16 10:15:00,
2013-01-16 05:20:00,32.9,30.9,30.09,NNE,22,4.0,6.0,92,0.01,,,0.01,0.0,meteohub,2013-01-16 10:20:00,
2013-01-16 05:26:00,32.9,30.9,30.10,North,355,5.0,6.0,92,0.01,,,0.01,0.0,meteohub,2013-01-16 10:26:00,
2013-01-16 05:31:00,32.9,30.9,30.09,NNE,17,2.0,6.0,92,0.01,,,0.01,0.0,meteohub,2013-01-16 10:31:00,
2013-01-16 05:36:00,32.7,30.7,30.09,North,5,5.0,6.0,92,0.01,,,0.01,0.0,meteohub,2013-01-16 10:36:00,
2013-01-16 05:41:00,32.7,30.7,30.10,North,5,0.0,6.0,92,0.01,,,0.01,0.0,meteohub,2013-01-16 10:41:00,
2013-01-16 05:46:00,32.7,30.7,30.10,North,5,3.0,6.0,92,0.01,,,0.01,0.0,meteohub,2013-01-16 10:46:00,
2013-01-16 05:51:00,32.7,30.7,30.09,North,0,0.0,6.0,92,0.01,,,0.01,0.0,meteohub,2013-01-16 10:51:00,
2013-01-16 05:56:00,32.7,30.7,30.09,North,0,0.0,3.0,92,0.01,,,0.01,0.0,meteohub,2013-01-16 10:56:00,
2013-01-16 06:02:00,32.9,30.9,30.08,ENE,67,0.0,3.0,92,0.00,,,0.01,0.0,meteohub,2013-01-16 11:02:00,
2013-01-16 06:07:00,33.1,31.1,30.08,East,97,0.0,1.0,92,0.00,,,0.01,0.0,meteohub,2013-01-16 11:07:00,
2013-01-16 06:12:00,33.1,31.1,30.08,East,97,0.0,2.0,92,0.00,,,0.01,0.0,meteohub,2013-01-16 11:12:00,
2013-01-16 06:17:00,33.1,31.3,30.07,East,97,0.0,2.0,93,0.00,,,0.01,0.0,meteohub,2013-01-16 11:17:00,
2013-01-16 06:22:00,33.3,31.5,30.06,East,97,2.0,2.0,93,0.00,,,0.01,0.0,meteohub,2013-01-16 11:22:00,
2013-01-16 06:27:00,33.3,31.5,30.06,East,98,1.0,4.0,93,0.00,,,0.01,0.0,meteohub,2013-01-16 11:27:00,
2013-01-16 06:32:00,33.3,31.5,30.06,ENE,61,3.0,4.0,93,0.00,,,0.01,0.0,meteohub,2013-01-16 11:32:00,
2013-01-16 06:37:00,33.3,31.5,30.06,NNE,16,2.0,4.0,93,0.00,,,0.01,0.0,meteohub,2013-01-16 11:37:00,
2013-01-16 06:42:00,33.3,31.5,30.06,East,97,0.0,4.0,93,0.00,,,0.01,0.0,meteohub,2013-01-16 11:42:00,
2013-01-16 06:47:00,33.4,31.6,30.05,East,97,1.0,4.0,93,0.00,,,0.01,0.0,meteohub,2013-01-16 11:47:00,
2013-01-16 06:53:00,33.4,31.6,30.05,NE,46,2.0,4.0,93,0.01,,,0.02,0.0,meteohub,2013-01-16 11:53:00,
2013-01-16 06:58:00,33.4,31.6,30.06,NE,46,3.0,4.0,93,0.02,,,0.03,0.0,meteohub,2013-01-16 11:58:00,
2013-01-16 07:03:00,33.4,31.6,30.06,North,5,3.0,4.0,93,0.02,,,0.03,0.0,meteohub,2013-01-16 12:03:00,
2013-01-16 07:08:00,33.4,31.6,30.06,North,5,2.0,4.0,93,0.03,,,0.04,0.0,meteohub,2013-01-16 12:08:00,
2013-01-16 07:13:00,33.4,31.6,30.06,North,9,2.0,4.0,93,0.03,,,0.04,0.0,meteohub,2013-01-16 12:13:00,
2013-01-16 07:18:00,33.4,31.6,30.06,North,9,2.0,4.0,93,0.03,,,0.04,0.0,meteohub,2013-01-16 12:18:00,
2013-01-16 07:23:00,33.4,31.6,30.05,North,9,2.0,3.0,93,0.03,,,0.04,0.0,meteohub,2013-01-16 12:23:00,
2013-01-16 07:28:00,33.4,31.6,30.05,North,9,1.0,3.0,93,0.04,,,0.05,0.0,meteohub,2013-01-16 12:28:00,
2013-01-16 07:33:00,33.6,31.8,30.05,North,9,2.0,3.0,93,0.04,,,0.05,0.0,meteohub,2013-01-16 12:33:00,
2013-01-16 07:38:00,33.6,31.8,30.06,North,9,2.0,3.0,93,0.04,,,0.05,0.0,meteohub,2013-01-16 12:38:00,
2013-01-16 07:44:00,33.4,31.6,30.06,North,9,2.0,3.0,93,0.05,,,0.06,0.0,meteohub,2013-01-16 12:44:00,
2013-01-16 07:49:00,33.4,31.6,30.06,North,9,1.0,3.0,93,0.04,,,0.06,0.0,meteohub,2013-01-16 12:49:00,
2013-01-16 07:54:00,33.4,31.6,30.06,NW,326,2.0,3.0,93,0.04,,,0.06,0.0,meteohub,2013-01-16 12:54:00,
2013-01-16 07:59:00,33.4,31.6,30.06,NW,326,2.0,5.0,93,0.03,,,0.06,7.0,meteohub,2013-01-16 12:59:00,
2013-01-16 08:04:00,33.6,31.8,30.06,NW,326,0.0,5.0,93,0.03,,,0.06,7.0,meteohub,2013-01-16 13:04:00,
2013-01-16 08:09:00,33.8,32.0,30.06,NW,326,0.0,5.0,93,0.02,,,0.06,9.0,meteohub,2013-01-16 13:09:00,
2013-01-16 08:15:00,34.0,32.2,30.06,NW,326,0.0,5.0,93,0.03,,,0.07,9.0,meteohub,2013-01-16 13:15:00,
2013-01-16 08:20:00,34.0,32.2,30.05,NW,326,1.0,4.0,93,0.03,,,0.07,12.0,meteohub,2013-01-16 13:20:00,
2013-01-16 08:25:00,34.0,32.2,30.04,NW,326,0.0,4.0,93,0.02,,,0.07,14.0,meteohub,2013-01-16 13:25:00,
2013-01-16 08:30:00,34.2,32.4,30.04,NNE,32,4.0,4.0,93,0.03,,,0.08,16.0,meteohub,2013-01-16 13:30:00,
2013-01-16 08:35:00,34.2,32.4,30.05,NNE,21,2.0,5.0,93,0.03,,,0.08,18.0,meteohub,2013-01-16 13:35:00,
2013-01-16 08:40:00,34.2,32.4,30.04,NE,49,4.0,6.0,93,0.02,,,0.08,21.0,meteohub,2013-01-16 13:40:00,
2013-01-16 08:45:00,34.2,32.4,30.03,North,11,6.0,6.0,93,0.03,,,0.09,19.0,meteohub,2013-01-16 13:45:00,
2013-01-16 08:51:00,34.2,32.4,30.02,North,0,6.0,8.0,93,0.03,,,0.09,19.0,meteohub,2013-01-16 13:51:00,
2013-01-16 08:56:00,34.2,32.4,30.02,North,355,5.0,8.0,93,0.04,,,0.10,19.0,meteohub,2013-01-16 13:56:00,
2013-01-16 09:01:00,34.0,32.2,30.02,North,5,4.0,8.0,93,0.04,,,0.10,25.0,meteohub,2013-01-16 14:01:00,
2013-01-16 09:06:00,34.0,32.2,30.00,NNE,24,3.0,8.0,93,0.03,,,0.10,33.0,meteohub,2013-01-16 14:06:00,
2013-01-16 09:11:00,34.2,32.4,29.99,NE,44,2.0,8.0,93,0.03,,,0.10,28.0,meteohub,2013-01-16 14:11:00,
2013-01-16 09:16:00,34.2,32.5,29.98,NE,34,4.0,7.0,94,0.04,,,0.11,26.0,meteohub,2013-01-16 14:16:00,
2013-01-16 09:21:00,34.2,32.5,29.97,NNE,32,3.0,6.0,94,0.04,,,0.11,28.0,meteohub,2013-01-16 14:21:00,
2013-01-16 09:27:00,34.2,32.5,29.96,NNE,32,2.0,6.0,94,0.03,,,0.11,26.0,meteohub,2013-01-16 14:27:00,
2013-01-16 09:32:00,34.3,32.7,29.96,NNE,31,5.0,6.0,94,0.03,,,0.11,33.0,meteohub,2013-01-16 14:32:00,
2013-01-16 09:37:00,34.3,32.7,29.96,North,355,5.0,6.0,94,0.04,,,0.12,28.0,meteohub,2013-01-16 14:37:00,
2013-01-16 09:42:00,34.3,32.7,29.96,NNW,334,4.0,6.0,94,0.04,,,0.12,33.0,meteohub,2013-01-16 14:42:00,
2013-01-16 09:47:00,34.3,32.7,29.96,NNW,338,4.0,8.0,94,0.03,,,0.12,35.0,meteohub,2013-01-16 14:47:00,
2013-01-16 09:52:00,34.3,32.7,29.96,NNW,341,4.0,8.0,94,0.03,,,0.12,28.0,meteohub,2013-01-16 14:52:00,
2013-01-16 09:57:00,34.3,32.7,29.94,NNE,24,4.0,7.0,94,0.02,,,0.12,39.0,meteohub,2013-01-16 14:57:00,
2013-01-16 10:02:00,34.3,32.7,29.94,NNE,20,1.0,7.0,94,0.02,,,0.12,37.0,meteohub,2013-01-16 15:02:00,
2013-01-16 10:07:00,34.5,32.9,29.93,NNE,26,4.0,7.0,94,0.02,,,0.12,37.0,meteohub,2013-01-16 15:07:00,
2013-01-16 10:12:00,34.5,32.9,29.91,NNE,27,2.0,7.0,94,0.03,,,0.13,40.0,meteohub,2013-01-16 15:12:00,
2013-01-16 10:17:00,34.7,33.1,29.93,NNE,26,3.0,5.0,94,0.02,,,0.13,40.0,meteohub,2013-01-16 15:17:00,
2013-01-16 10:22:00,34.7,33.1,29.93,NNW,342,2.0,5.0,94,0.02,,,0.13,39.0,meteohub,2013-01-16 15:22:00,
2013-01-16 10:27:00,34.9,33.3,29.92,NNE,22,0.0,6.0,94,0.02,,,0.13,37.0,meteohub,2013-01-16 15:27:00,
2013-01-16 10:32:00,35.1,33.4,29.92,NNE,19,3.0,6.0,94,0.03,,,0.14,35.0,meteohub,2013-01-16 15:32:00,
2013-01-16 10:37:00,35.1,33.4,29.92,NNE,19,2.0,5.0,94,0.02,,,0.14,39.0,meteohub,2013-01-16 15:37:00,
2013-01-16 10:42:00,35.1,33.4,29.93,NNW,331,4.0,5.0,94,0.02,,,0.14,35.0,meteohub,2013-01-16 15:42:00,
2013-01-16 10:47:00,35.1,33.4,29.94,NNW,341,5.0,5.0,94,0.02,,,0.14,39.0,meteohub,2013-01-16 15:47:00,
2013-01-16 10:52:00,35.2,33.6,29.94,NNW,329,0.0,6.0,94,0.02,,,0.14,37.0,meteohub,2013-01-16 15:52:00,
2013-01-16 10:57:00,35.2,33.6,29.95,NW,311,2.0,6.0,94,0.03,,,0.15,32.0,meteohub,2013-01-16 15:57:00,
2013-01-16 11:02:00,35.2,33.6,29.93,NW,311,0.0,5.0,94,0.03,,,0.15,32.0,meteohub,2013-01-16 16:02:00,
2013-01-16 11:07:00,35.2,33.6,29.93,NW,311,0.0,5.0,94,0.02,,,0.15,32.0,meteohub,2013-01-16 16:07:00,
2013-01-16 11:12:00,35.2,33.6,29.93,NW,311,0.0,5.0,94,0.02,,,0.15,28.0,meteohub,2013-01-16 16:12:00,
2013-01-16 11:17:00,35.2,33.6,29.93,NW,311,0.0,4.0,94,0.03,,,0.16,26.0,meteohub,2013-01-16 16:17:00,
2013-01-16 11:22:00,35.2,33.6,29.93,NW,311,2.0,2.0,94,0.03,,,0.16,25.0,meteohub,2013-01-16 16:22:00,
2013-01-16 11:27:00,35.2,33.6,29.93,NNW,333,6.0,6.0,94,0.03,,,0.16,28.0,meteohub,2013-01-16 16:27:00,
2013-01-16 11:32:00,35.2,33.6,29.93,North,0,4.0,7.0,94,0.02,,,0.16,30.0,meteohub,2013-01-16 16:32:00,
2013-01-16 11:37:00,35.2,33.6,29.93,NNW,327,5.0,8.0,94,0.03,,,0.17,32.0,meteohub,2013-01-16 16:37:00,
2013-01-16 11:42:00,35.1,33.4,29.92,North,349,4.0,8.0,94,0.03,,,0.17,32.0,meteohub,2013-01-16 16:42:00,
2013-01-16 11:47:00,35.1,33.4,29.91,North,355,10.0,10.0,94,0.04,,,0.18,32.0,meteohub,2013-01-16 16:47:00,
2013-01-16 11:52:00,35.1,33.4,29.92,North,355,5.0,10.0,94,0.03,,,0.18,32.0,meteohub,2013-01-16 16:52:00,
2013-01-16 11:57:00,35.1,33.4,29.92,NNW,334,6.0,10.0,94,0.04,,,0.19,32.0,meteohub,2013-01-16 16:57:00,
2013-01-16 12:02:00,35.1,33.4,29.92,NNW,339,2.0,10.0,94,0.04,,,0.19,32.0,meteohub,2013-01-16 17:02:00,
2013-01-16 12:07:00,35.1,33.4,29.91,North,349,4.0,11.0,94,0.05,,,0.20,30.0,meteohub,2013-01-16 17:07:00,
2013-01-16 12:12:00,35.1,33.4,29.92,NNE,15,5.0,11.0,94,0.04,,,0.20,30.0,meteohub,2013-01-16 17:12:00,
2013-01-16 12:17:00,35.1,33.4,29.91,North,11,5.0,11.0,94,0.04,,,0.20,33.0,meteohub,2013-01-16 17:17:00,
2013-01-16 12:22:00,34.9,33.3,29.90,North,5,4.0,8.0,94,0.05,,,0.21,35.0,meteohub,2013-01-16 17:22:00,
2013-01-16 12:27:00,34.9,33.3,29.90,North,5,4.0,8.0,94,0.05,,,0.21,33.0,meteohub,2013-01-16 17:27:00,
2013-01-16 12:32:00,34.9,33.3,29.91,North,9,0.0,8.0,94,0.05,,,0.22,32.0,meteohub,2013-01-16 17:32:00,
2013-01-16 12:37:00,34.9,33.3,29.91,North,350,4.0,6.0,94,0.06,,,0.23,33.0,meteohub,2013-01-16 17:37:00,
2013-01-16 12:42:00,34.9,33.3,29.91,North,5,5.0,6.0,94,0.06,,,0.23,26.0,meteohub,2013-01-16 17:42:00,
2013-01-16 12:47:00,34.9,33.3,29.90,NNW,340,4.0,7.0,94,0.06,,,0.24,32.0,meteohub,2013-01-16 17:47:00,
2013-01-16 12:52:00,34.9,33.3,29.90,NNW,339,2.0,7.0,94,0.06,,,0.24,33.0,meteohub,2013-01-16 17:52:00,
2013-01-16 12:57:00,34.7,33.1,29.89,North,0,2.0,8.0,94,0.05,,,0.24,37.0,meteohub,2013-01-16 17:57:00,
2013-01-16 13:02:00,34.7,33.1,29.88,NNE,15,6.0,8.0,94,0.06,,,0.25,33.0,meteohub,2013-01-16 18:02:00,
2013-01-16 13:07:00,34.7,33.1,29.87,NE,50,3.0,9.0,94,0.06,,,0.26,30.0,meteohub,2013-01-16 18:07:00,
2013-01-16 13:12:00,34.7,33.1,29.86,ENE,76,1.0,9.0,94,0.06,,,0.26,35.0,meteohub,2013-01-16 18:12:00,
2013-01-16 13:17:00,34.7,33.1,29.83,ENE,76,2.0,8.0,94,0.05,,,0.26,28.0,meteohub,2013-01-16 18:17:00,
2013-01-16 13:22:00,34.9,33.3,29.84,NE,42,0.0,5.0,94,0.05,,,0.26,33.0,meteohub,2013-01-16 18:22:00,
2013-01-16 13:27:00,34.9,33.3,29.87,NNW,348,7.0,7.0,94,0.05,,,0.27,25.0,meteohub,2013-01-16 18:27:00,
2013-01-16 13:32:00,34.7,33.1,29.85,NE,46,3.0,9.0,94,0.05,,,0.27,23.0,meteohub,2013-01-16 18:32:00,
2013-01-16 13:37:00,34.7,33.1,29.83,NNE,29,2.0,9.0,94,0.04,,,0.27,25.0,meteohub,2013-01-16 18:37:00,
2013-01-16 13:42:00,34.7,33.1,29.81,East,86,2.0,9.0,94,0.05,,,0.28,26.0,meteohub,2013-01-16 18:42:00,
2013-01-16 13:47:00,34.7,33.1,29.79,East,86,3.0,5.0,94,0.04,,,0.28,37.0,meteohub,2013-01-16 18:47:00,
2013-01-16 13:52:00,34.9,33.3,29.78,East,98,0.0,5.0,94,0.04,,,0.28,42.0,meteohub,2013-01-16 18:52:00,
2013-01-16 13:57:00,34.9,33.3,29.78,East,98,0.0,5.0,94,0.03,,,0.28,37.0,meteohub,2013-01-16 18:57:00,
2013-01-16 14:02:00,34.9,33.3,29.78,ESE,107,0.0,5.0,94,0.04,,,0.29,35.0,meteohub,2013-01-16 19:02:00,
2013-01-16 14:07:00,35.1,33.4,29.80,NNW,329,6.0,6.0,94,0.03,,,0.29,32.0,meteohub,2013-01-16 19:07:00,
2013-01-16 14:12:00,35.1,33.4,29.81,NW,305,6.0,9.0,94,0.03,,,0.29,32.0,meteohub,2013-01-16 19:12:00,
2013-01-16 14:17:00,34.9,33.3,29.82,NW,308,7.0,9.0,94,0.04,,,0.29,33.0,meteohub,2013-01-16 19:17:00,
2013-01-16 14:22:00,34.9,33.3,29.83,NW,325,9.0,11.0,94,0.03,,,0.30,25.0,meteohub,2013-01-16 19:22:00,
2013-01-16 14:27:00,34.7,33.1,29.83,NNW,336,7.0,17.0,94,0.03,,,0.30,25.0,meteohub,2013-01-16 19:27:00,
2013-01-16 14:32:00,34.7,33.1,29.84,WNW,301,7.0,17.0,94,0.03,,,0.30,19.0,meteohub,2013-01-16 19:32:00,
2013-01-16 14:37:00,34.7,33.1,29.82,NE,39,2.0,15.0,94,0.02,,,0.30,21.0,meteohub,2013-01-16 19:37:00,
2013-01-16 14:42:00,34.7,33.1,29.83,NNW,340,5.0,15.0,94,0.03,,,0.31,18.0,meteohub,2013-01-16 19:42:00,
2013-01-16 14:47:00,34.9,33.3,29.84,NNW,333,8.0,11.0,94,0.03,,,0.31,16.0,meteohub,2013-01-16 19:47:00,
2013-01-16 14:52:00,34.9,33.3,29.86,WNW,295,11.0,11.0,94,0.03,,,0.31,14.0,meteohub,2013-01-16 19:52:00,
2013-01-16 14:57:00,34.9,33.3,29.87,NW,321,7.0,15.0,94,0.03,,,0.32,14.0,meteohub,2013-01-16 19:57:00,
2013-01-16 15:02:00,34.9,33.3,29.87,North,355,10.0,15.0,94,0.03,,,0.32,12.0,meteohub,2013-01-16 20:02:00,
2013-01-16 15:07:00,34.7,33.1,29.87,NNW,331,8.0,15.0,94,0.03,,,0.32,12.0,meteohub,2013-01-16 20:07:00,
2013-01-16 15:12:00,34.7,33.1,29.87,NW,324,7.0,14.0,94,0.03,,,0.32,12.0,meteohub,2013-01-16 20:12:00,
2013-01-16 15:17:00,34.5,32.9,29.86,NNW,327,5.0,12.0,94,0.03,,,0.33,12.0,meteohub,2013-01-16 20:17:00,
2013-01-16 15:22:00,34.5,32.9,29.86,North,350,6.0,13.0,94,0.03,,,0.33,14.0,meteohub,2013-01-16 20:22:00,
2013-01-16 15:27:00,34.5,32.9,29.84,North,5,0.0,13.0,94,0.03,,,0.33,18.0,meteohub,2013-01-16 20:27:00,
2013-01-16 15:32:00,34.5,32.9,29.84,North,10,0.0,7.0,94,0.03,,,0.33,16.0,meteohub,2013-01-16 20:32:00,
2013-01-16 15:37:00,34.5,32.9,29.84,North,10,3.0,7.0,94,0.02,,,0.33,16.0,meteohub,2013-01-16 20:37:00,
2013-01-16 15:42:00,34.5,32.9,29.86,North,5,3.0,5.0,94,0.03,,,0.34,12.0,meteohub,2013-01-16 20:42:00,
2013-01-16 15:47:00,34.5,32.9,29.85,NNW,333,4.0,5.0,94,0.03,,,0.34,11.0,meteohub,2013-01-16 20:47:00,
2013-01-16 15:52:00,34.5,32.9,29.86,NNW,333,4.0,5.0,94,0.03,,,0.34,9.0,meteohub,2013-01-16 20:52:00,
2013-01-16 15:57:00,34.5,32.9,29.86,NNW,333,2.0,5.0,94,0.02,,,0.34,9.0,meteohub,2013-01-16 20:57:00,
2013-01-16 16:02:00,34.5,32.9,29.86,NNW,342,4.0,5.0,94,0.02,,,0.34,5.0,meteohub,2013-01-16 21:02:00,
2013-01-16 16:07:00,34.5,32.9,29.87,NW,319,4.0,7.0,94,0.02,,,0.34,5.0,meteohub,2013-01-16 21:07:00,
2013-01-16 16:12:00,34.5,32.9,29.87,NW,324,7.0,8.0,94,0.03,,,0.34,0.0,meteohub,2013-01-16 21:12:00,
2013-01-16 16:17:00,34.5,32.9,29.86,NNW,331,4.0,9.0,94,0.02,,,0.35,5.0,meteohub,2013-01-16 21:17:00,
2013-01-16 16:22:00,34.5,32.9,29.88,NW,315,5.0,9.0,94,0.02,,,0.35,0.0,meteohub,2013-01-16 21:22:00,
2013-01-16 16:27:00,34.5,32.9,29.88,NNW,333,4.0,9.0,94,0.02,,,0.35,0.0,meteohub,2013-01-16 21:27:00,
2013-01-16 16:32:00,34.5,32.9,29.87,North,350,4.0,9.0,94,0.02,,,0.35,0.0,meteohub,2013-01-16 21:32:00,
2013-01-16 16:37:00,34.3,32.7,29.86,North,349,0.0,9.0,94,0.01,,,0.35,0.0,meteohub,2013-01-16 21:37:00,
2013-01-16 16:42:00,34.5,32.9,29.86,North,349,4.0,8.0,94,0.01,,,0.35,0.0,meteohub,2013-01-16 21:42:00,
2013-01-16 16:47:00,34.3,32.7,29.86,NNW,348,4.0,6.0,94,0.02,,,0.36,0.0,meteohub,2013-01-16 21:47:00,
2013-01-16 16:52:00,34.3,32.7,29.86,NNW,348,4.0,5.0,94,0.02,,,0.36,0.0,meteohub,2013-01-16 21:52:00,
2013-01-16 16:57:00,34.3,32.7,29.86,NNW,348,6.0,6.0,94,0.02,,,0.36,0.0,meteohub,2013-01-16 21:57:00,
2013-01-16 17:02:00,34.3,32.7,29.87,NNW,331,2.0,7.0,94,0.02,,,0.36,0.0,meteohub,2013-01-16 22:02:00,
2013-01-16 17:07:00,34.3,32.7,29.86,NW,326,0.0,7.0,94,0.02,,,0.36,0.0,meteohub,2013-01-16 22:07:00,
2013-01-16 17:12:00,34.3,32.7,29.87,NW,326,0.0,7.0,94,0.01,,,0.36,0.0,meteohub,2013-01-16 22:12:00,
2013-01-16 17:17:00,34.3,32.7,29.86,NW,326,0.0,6.0,94,0.01,,,0.36,0.0,meteohub,2013-01-16 22:17:00,
2013-01-16 17:22:00,34.3,32.7,29.86,NW,326,2.0,5.0,94,0.01,,,0.36,0.0,meteohub,2013-01-16 22:22:00,
2013-01-16 17:27:00,34.3,32.7,29.86,NNW,333,0.0,5.0,94,0.01,,,0.36,0.0,meteohub,2013-01-16 22:27:00,
2013-01-16 17:32:00,34.3,32.7,29.86,NNW,333,1.0,5.0,94,0.01,,,0.36,0.0,meteohub,2013-01-16 22:32:00,
2013-01-16 17:37:00,34.3,32.7,29.86,NNW,333,0.0,5.0,94,0.01,,,0.36,0.0,meteohub,2013-01-16 22:37:00,
2013-01-16 17:42:00,34.3,32.7,29.87,NNW,333,0.0,5.0,94,0.01,,,0.36,0.0,meteohub,2013-01-16 22:42:00,
2013-01-16 17:47:00,34.2,32.5,29.88,NNW,333,0.0,4.0,94,0.01,,,0.37,0.0,meteohub,2013-01-16 22:47:00,
2013-01-16 17:52:00,34.2,32.5,29.87,NNW,333,0.0,2.0,94,0.01,,,0.37,0.0,meteohub,2013-01-16 22:52:00,
2013-01-16 17:57:00,34.2,32.5,29.87,NNW,333,0.0,2.0,94,0.01,,,0.37,0.0,meteohub,2013-01-16 22:57:00,
2013-01-16 18:02:00,34.2,32.5,29.87,NNW,333,0.0,1.0,94,0.01,,,0.37,0.0,meteohub,2013-01-16 23:02:00,
2013-01-16 18:07:00,34.2,32.5,29.87,NNW,333,0.0,1.0,94,0.01,,,0.37,0.0,meteohub,2013-01-16 23:07:00,
2013-01-16 18:12:00,34.2,32.5,29.88,NNW,333,0.0,4.0,94,0.01,,,0.37,0.0,meteohub,2013-01-16 23:12:00,
2013-01-16 18:17:00,34.2,32.5,29.88,South,173,0.0,4.0,94,0.01,,,0.37,0.0,meteohub,2013-01-16 23:17:00,
2013-01-16 18:22:00,34.2,32.5,29.88,South,172,0.0,4.0,94,0.01,,,0.37,0.0,meteohub,2013-01-16 23:22:00,
2013-01-16 18:27:00,34.2,32.5,29.88,South,172,0.0,2.0,94,0.01,,,0.37,0.0,meteohub,2013-01-16 23:27:00,
2013-01-16 18:32:00,34.2,32.5,29.88,South,172,0.0,2.0,94,0.01,,,0.37,0.0,meteohub,2013-01-16 23:32:00,
2013-01-16 18:37:00,34.2,32.5,29.88,South,172,0.0,4.0,94,0.01,,,0.37,0.0,meteohub,2013-01-16 23:37:00,
2013-01-16 18:42:00,34.2,32.5,29.87,South,172,0.0,4.0,94,0.00,,,0.37,0.0,meteohub,2013-01-16 23:42:00,
2013-01-16 18:47:00,34.2,32.5,29.87,South,172,0.0,2.0,94,0.01,,,0.38,0.0,meteohub,2013-01-16 23:47:00,
2013-01-16 18:52:00,34.2,32.5,29.87,South,172,0.0,1.0,94,0.01,,,0.38,0.0,meteohub,2013-01-16 23:52:00,
2013-01-16 18:57:00,34.3,32.7,29.87,South,172,0.0,1.0,94,0.01,,,0.38,0.0,meteohub,2013-01-16 23:57:00,
2013-01-16 19:02:00,34.3,32.7,29.86,South,172,0.0,1.0,94,0.01,,,0.38,0.0,meteohub,2013-01-17 00:02:00,
2013-01-16 19:07:00,34.3,32.7,29.87,South,172,0.0,1.0,94,0.01,,,0.00,0.0,meteohub,2013-01-17 00:07:00,
2013-01-16 19:12:00,34.3,32.7,29.87,South,172,0.0,1.0,94,0.01,,,0.00,0.0,meteohub,2013-01-17 00:12:00,
2013-01-16 19:17:00,34.3,32.7,29.86,South,172,0.0,1.0,94,0.01,,,0.00,0.0,meteohub,2013-01-17 00:17:00,
2013-01-16 19:22:00,34.3,32.7,29.86,South,172,0.0,2.0,94,0.01,,,0.00,0.0,meteohub,2013-01-17 00:22:00,
2013-01-16 19:27:00,34.3,32.7,29.87,South,172,0.0,2.0,94,0.01,,,0.00,0.0,meteohub,2013-01-17 00:27:00,
2013-01-16 19:32:00,34.5,32.9,29.86,South,172,0.0,2.0,94,0.01,,,0.00,0.0,meteohub,2013-01-17 00:32:00,
2013-01-16 19:37:00,34.5,32.9,29.86,South,172,0.0,1.0,94,0.01,,,0.00,0.0,meteohub,2013-01-17 00:37:00,
2013-01-16 19:42:00,34.5,32.9,29.87,South,172,0.0,1.0,94,0.01,,,0.00,0.0,meteohub,2013-01-17 00:42:00,
2013-01-16 19:47:00,34.5,32.9,29.86,South,172,0.0,1.0,94,0.00,,,0.00,0.0,meteohub,2013-01-17 00:47:00,
2013-01-16 19:52:00,34.5,32.9,29.86,South,172,2.0,2.0,94,0.00,,,0.00,0.0,meteohub,2013-01-17 00:52:00,
2013-01-16 19:57:00,34.7,33.1,29.86,South,172,0.0,2.0,94,0.00,,,0.00,0.0,meteohub,2013-01-17 00:57:00,
2013-01-16 20:02:00,34.9,33.3,29.86,SSE,159,0.0,2.0,94,0.00,,,0.00,0.0,meteohub,2013-01-17 01:02:00,
2013-01-16 20:07:00,35.1,33.4,29.87,SSE,159,0.0,2.0,94,0.00,,,0.00,0.0,meteohub,2013-01-17 01:07:00,
2013-01-16 20:12:00,35.1,33.4,29.87,WNW,303,2.0,6.0,94,0.01,,,0.01,0.0,meteohub,2013-01-17 01:12:00,
2013-01-16 20:17:00,35.2,33.6,29.87,SSW,192,0.0,6.0,94,0.01,,,0.01,0.0,meteohub,2013-01-17 01:17:00,
2013-01-16 20:22:00,35.4,34.2,29.86,West,260,0.0,6.0,95,0.01,,,0.01,0.0,meteohub,2013-01-17 01:22:00,
2013-01-16 20:27:00,35.4,34.2,29.87,WSW,240,0.0,6.0,95,0.01,,,0.01,0.0,meteohub,2013-01-17 01:27:00,
2013-01-16 20:32:00,35.6,34.0,29.87,SW,225,0.0,10.0,94,0.01,,,0.01,0.0,meteohub,2013-01-17 01:32:00,
2013-01-16 20:37:00,35.8,34.2,29.88,SW,229,3.0,10.0,94,0.01,,,0.01,0.0,meteohub,2013-01-17 01:37:00,
2013-01-16 20:42:00,35.8,34.2,29.88,SSW,207,0.0,12.0,94,0.01,,,0.01,0.0,meteohub,2013-01-17 01:42:00,
2013-01-16 20:47:00,35.6,34.0,29.87,West,263,6.0,12.0,94,0.01,,,0.01,0.0,meteohub,2013-01-17 01:47:00,
2013-01-16 20:52:00,35.6,34.0,29.87,SW,231,5.0,12.0,94,0.01,,,0.01,0.0,meteohub,2013-01-17 01:52:00,
2013-01-16 20:57:00,35.6,34.0,29.87,SSW,201,4.0,12.0,94,0.02,,,0.02,0.0,meteohub,2013-01-17 01:57:00,
2013-01-16 21:02:00,35.4,33.8,29.87,SW,228,6.0,12.0,94,0.02,,,0.02,0.0,meteohub,2013-01-17 02:02:00,
2013-01-16 21:07:00,35.4,33.8,29.87,WSW,252,6.0,11.0,94,0.02,,,0.02,0.0,meteohub,2013-01-17 02:07:00,
2013-01-16 21:12:00,35.4,33.8,29.88,SSW,205,6.0,12.0,94,0.01,,,0.02,0.0,meteohub,2013-01-17 02:12:00,
2013-01-16 21:17:00,35.2,33.6,29.88,SW,226,7.0,13.0,94,0.01,,,0.02,0.0,meteohub,2013-01-17 02:17:00,
2013-01-16 21:22:00,35.4,33.8,29.88,SSW,203,4.0,13.0,94,0.01,,,0.02,0.0,meteohub,2013-01-17 02:22:00,
2013-01-16 21:27:00,35.2,33.6,29.88,West,264,6.0,9.0,94,0.01,,,0.02,0.0,meteohub,2013-01-17 02:27:00,
2013-01-16 21:32:00,35.2,33.6,29.88,SW,223,6.0,11.0,94,0.01,,,0.02,0.0,meteohub,2013-01-17 02:32:00,
2013-01-16 21:37:00,35.2,33.6,29.88,West,263,3.0,11.0,94,0.01,,,0.02,0.0,meteohub,2013-01-17 02:37:00,
2013-01-16 21:42:00,35.2,33.6,29.88,NW,311,5.0,11.0,94,0.02,,,0.03,0.0,meteohub,2013-01-17 02:42:00,
2013-01-16 21:47:00,35.2,33.6,29.87,WNW,294,7.0,9.0,94,0.02,,,0.03,0.0,meteohub,2013-01-17 02:47:00,
2013-01-16 21:52:00,35.2,33.6,29.87,WSW,256,7.0,11.0,94,0.02,,,0.03,0.0,meteohub,2013-01-17 02:52:00,
2013-01-16 21:57:00,35.1,33.4,29.88,WNW,294,6.0,11.0,94,0.01,,,0.03,0.0,meteohub,2013-01-17 02:57:00,
2013-01-16 22:02:00,35.1,33.4,29.88,West,275,4.0,13.0,94,0.01,,,0.03,0.0,meteohub,2013-01-17 03:02:00,
2013-01-16 22:07:00,35.1,33.4,29.87,WNW,294,5.0,13.0,94,0.01,,,0.03,0.0,meteohub,2013-01-17 03:07:00,
2013-01-16 22:12:00,35.1,33.4,29.87,NW,309,4.0,9.0,94,0.01,,,0.03,0.0,meteohub,2013-01-17 03:12:00,
2013-01-16 22:17:00,35.1,33.4,29.88,WNW,298,0.0,9.0,94,0.01,,,0.03,0.0,meteohub,2013-01-17 03:17:00,
2013-01-16 22:22:00,35.1,33.4,29.87,WNW,295,7.0,9.0,94,0.01,,,0.03,0.0,meteohub,2013-01-17 03:22:00,
2013-01-16 22:27:00,35.1,33.4,29.88,NW,315,2.0,7.0,94,0.01,,,0.03,0.0,meteohub,2013-01-17 03:27:00,
2013-01-16 22:32:00,34.9,33.3,29.87,SW,234,0.0,7.0,94,0.01,,,0.03,0.0,meteohub,2013-01-17 03:32:00,
2013-01-16 22:37:00,34.9,33.3,29.87,West,261,2.0,7.0,94,0.01,,,0.03,0.0,meteohub,2013-01-17 03:37:00,
2013-01-16 22:42:00,34.9,33.1,29.86,WSW,256,2.0,6.0,93,0.00,,,0.03,0.0,meteohub,2013-01-17 03:42:00,
2013-01-16 22:47:00,34.9,33.1,29.86,WSW,242,1.0,5.0,93,0.00,,,0.03,0.0,meteohub,2013-01-17 03:47:00,
2013-01-16 22:52:00,34.7,32.9,29.87,West,277,0.0,5.0,93,0.00,,,0.03,0.0,meteohub,2013-01-17 03:52:00,
2013-01-16 22:57:00,34.7,32.9,29.86,SSE,156,0.0,5.0,93,0.01,,,0.04,0.0,meteohub,2013-01-17 03:57:00,
2013-01-16 23:02:00,34.5,32.7,29.87,SSW,207,1.0,5.0,93,0.01,,,0.04,0.0,meteohub,2013-01-17 04:02:00,
2013-01-16 23:07:00,34.5,32.7,29.87,SSW,209,0.0,5.0,93,0.01,,,0.04,0.0,meteohub,2013-01-17 04:07:00,
2013-01-16 23:12:00,34.5,32.7,29.87,SSW,198,0.0,3.0,93,0.01,,,0.04,0.0,meteohub,2013-01-17 04:12:00,
2013-01-16 23:17:00,34.5,32.9,29.87,SSW,198,0.0,3.0,94,0.01,,,0.04,0.0,meteohub,2013-01-17 04:17:00,
2013-01-16 23:22:00,34.5,32.9,29.87,SSW,198,0.0,3.0,94,0.01,,,0.04,0.0,meteohub,2013-01-17 04:22:00,
2013-01-16 23:27:00,34.3,32.7,29.87,WSW,243,0.0,3.0,94,0.01,,,0.04,0.0,meteohub,2013-01-17 04:27:00,
2013-01-16 23:33:00,34.3,32.7,29.87,WSW,239,3.0,3.0,94,0.01,,,0.04,0.0,meteohub,2013-01-17 04:33:00,
2013-01-16 23:38:00,34.3,32.7,29.87,SW,222,2.0,3.0,94,0.01,,,0.04,0.0,meteohub,2013-01-17 04:38:00,
2013-01-16 23:43:00,34.3,32.7,29.88,SW,225,0.0,4.0,94,0.01,,,0.04,0.0,meteohub,2013-01-17 04:43:00,
2013-01-16 23:48:00,34.3,32.7,29.87,SW,224,2.0,6.0,94,0.01,,,0.04,0.0,meteohub,2013-01-17 04:48:00,
2013-01-16 23:53:00,34.3,32.7,29.87,SSW,198,2.0,6.0,94,0.00,,,0.04,0.0,meteohub,2013-01-17 04:53:00,
2013-01-16 23:58:00,34.3,32.7,29.88,WSW,242,4.0,7.0,94,0.00,,,0.04,0.0,meteohub,2013-01-17 04:58:00,